Weather History for KPNA - August, 2014

Change the Weather History Date:

Sunday, August 10, 2014

  Actual Average (KBPI) Record (KBPI)
Temperature  
Mean Temperature 59 °F 61 °F  
Max Temperature 77 °F 81 °F 90 °F (2003)
Min Temperature 41 °F 42 °F 31 °F (1980)
Degree Days  
Heating Degree Days 6 4  
Month to date heating degree days 36  
Since 1 June heating degree days 458  
Since 1 July heating degree days 153  
Cooling Degree Days 0 1  
Month to date cooling degree days 10  
Year to date cooling degree days 34  
Since 1 June cooling degree days 34  
Growing Degree Days 9 (Base 50)    
Moisture  
Dew Point 40 °F    
Average Humidity 57    
Maximum Humidity 100    
Minimum Humidity 17    
Precipitation  
Precipitation 0.00 in 0.02 in 0.61 in (1997)
Month to date precipitation 0.23  
Year to date precipitation 4.20  
Sea Level Pressure  
Sea Level Pressure 30.43 in    
Wind  
Wind Speed 4 mph (NW)    
Max Wind Speed 12 mph    
Max Gust Speed 9 mph    
Visibility 10 miles    
Events Thunderstorm    
T = Trace of Precipitation, MM = Missing Value Source: NWS Daily Summary

Daily Weather History Graph

Daily Weather History Graph

Search for Another Location

Airport or City:

Trip Planner

Search our weather history database for the weather conditions in past years. The results will help you decide how hot, cold, wet, or windy it might be!

Date:

Astronomy

Aug. 10, 2014 Rise Set
Actual Time 6:20 AM MDT 8:28 PM MDT
Civil Twilight 5:49 AM MDT 8:59 PM MDT
Nautical Twilight 5:10 AM MDT 9:37 PM MDT
Astronomical Twilight 4:28 AM MDT 10:18 PM MDT
Moon 8:15 PM MDT (8/10) 6:17 AM MDT (8/10)
Length of Visible Light 15h 09m
Length of Day
14h 07m
Full, 100% of the Moon is Illuminated
Aug 10
Full
Aug 10
Full
Aug 17
Last Quarter
Aug 25
New
Sep 2
First Quarter

Hourly Weather History & Observations

Time (MDT) Temp. Windchill Dew Point Humidity Pressure Visibility Wind Dir Wind Speed Gust Speed Precip Events Conditions
12:15 AM 50.0 °F - 42.8 °F 76% 30.39 in 10.0 mi WNW 3.5 mph - N/A   Clear
12:35 AM 48.2 °F - 42.8 °F 82% 30.39 in 10.0 mi West 4.6 mph - N/A   Clear
12:55 AM 48.2 °F - 42.8 °F 82% 30.39 in 10.0 mi West 4.6 mph - N/A   Clear
1:15 AM 46.4 °F 42.9 °F 41.0 °F 81% 30.40 in 10.0 mi WNW 6.9 mph - N/A   Clear
1:35 AM 46.4 °F 44.3 °F 42.8 °F 87% 30.40 in 10.0 mi West 4.6 mph - N/A   Clear
1:55 AM 44.6 °F 42.2 °F 42.8 °F 93% 30.40 in 10.0 mi West 4.6 mph - N/A   Clear
2:15 AM 44.6 °F - 42.8 °F 93% 30.40 in 10.0 mi Calm Calm - N/A   Clear
2:35 AM 44.6 °F 41.4 °F 42.8 °F 93% 30.41 in 10.0 mi West 5.8 mph - N/A   Clear
2:55 AM 44.6 °F 41.4 °F 42.8 °F 93% 30.42 in 10.0 mi WNW 5.8 mph - N/A   Clear
3:15 AM 44.6 °F 43.1 °F 42.8 °F 93% 30.42 in 10.0 mi NNW 3.5 mph - N/A   Clear
3:35 AM 42.8 °F - 42.8 °F 100% 30.42 in 10.0 mi Calm Calm - N/A   Clear
4:15 AM 42.8 °F 40.1 °F 41.0 °F 93% 30.43 in 10.0 mi West 4.6 mph - N/A   Clear
4:35 AM 42.8 °F 37.5 °F 41.0 °F 93% 30.43 in 10.0 mi WNW 9.2 mph - N/A   Clear
4:55 AM 42.8 °F 39.3 °F 41.0 °F 93% 30.43 in 10.0 mi NW 5.8 mph - N/A   Clear
5:15 AM 42.8 °F 38.6 °F 41.0 °F 93% 30.45 in 10.0 mi NW 6.9 mph - N/A   Clear
5:35 AM 42.8 °F 39.3 °F 41.0 °F 93% 30.45 in 10.0 mi WSW 5.8 mph - N/A   Clear
5:55 AM 41.0 °F 39.0 °F 41.0 °F 100% 30.45 in 10.0 mi NW 3.5 mph - N/A   Scattered Clouds
6:15 AM 42.8 °F - 41.0 °F 93% 30.46 in 10.0 mi North - - N/A   Scattered Clouds
6:35 AM 41.0 °F - 41.0 °F 100% 30.47 in 10.0 mi North - - N/A   Clear
6:55 AM 42.8 °F 40.1 °F 41.0 °F 93% 30.47 in 10.0 mi West 4.6 mph - N/A   Clear
7:15 AM 42.8 °F 39.3 °F 41.0 °F 93% 30.47 in 10.0 mi WNW 5.8 mph - N/A   Clear
7:35 AM 44.6 °F 42.2 °F 42.8 °F 93% 30.47 in 10.0 mi WNW 4.6 mph - N/A   Clear
7:55 AM 46.4 °F 45.2 °F 42.8 °F 87% 30.48 in 10.0 mi NW 3.5 mph - N/A   Clear
8:15 AM 48.2 °F - 42.8 °F 82% 30.48 in 10.0 mi NW 4.6 mph - N/A   Clear
8:35 AM 51.8 °F - 42.8 °F 71% 30.48 in 10.0 mi NW 5.8 mph - N/A   Clear
8:55 AM 55.4 °F - 44.6 °F 67% 30.48 in 10.0 mi WNW 6.9 mph - N/A   Clear
9:15 AM 59.0 °F - 44.6 °F 59% 30.48 in 10.0 mi NW 9.2 mph - N/A   Clear
9:35 AM 60.8 °F - 44.6 °F 55% 30.48 in 10.0 mi WNW 6.9 mph - N/A   Clear
9:55 AM 62.6 °F - 44.6 °F 52% 30.48 in 10.0 mi NW 5.8 mph - N/A   Clear
10:15 AM 62.6 °F - 44.6 °F 52% 30.48 in 10.0 mi NW 5.8 mph - N/A   Clear
10:35 AM 64.4 °F - 44.6 °F 49% 30.47 in 10.0 mi NW 3.5 mph - N/A   Clear
10:55 AM 66.2 °F - 41.0 °F 40% 30.48 in 10.0 mi Calm Calm - N/A   Clear
11:15 AM 66.2 °F - 41.0 °F 40% 30.48 in 10.0 mi NW 4.6 mph - N/A   Clear
11:35 AM 68.0 °F - 41.0 °F 37% 30.48 in 10.0 mi NW 3.5 mph - N/A   Clear
11:55 AM 68.0 °F - 41.0 °F 37% 30.48 in 10.0 mi Calm Calm - N/A   Clear
12:15 PM 69.8 °F - 41.0 °F 35% 30.47 in 10.0 mi Calm Calm - N/A   Clear
12:35 PM 69.8 °F - 41.0 °F 35% 30.47 in 10.0 mi Calm Calm - N/A   Clear
12:55 PM 71.6 °F - 41.0 °F 33% 30.46 in 10.0 mi North 6.9 mph - N/A   Clear
1:15 PM 71.6 °F - 35.6 °F 27% 30.46 in 10.0 mi NW 4.6 mph - N/A   Clear
1:35 PM 71.6 °F - 37.4 °F 29% 30.45 in 10.0 mi WNW 3.5 mph - N/A   Scattered Clouds
1:55 PM 69.8 °F - 37.4 °F 31% 30.45 in 10.0 mi NW 3.5 mph - N/A   Scattered Clouds
2:15 PM 71.6 °F - 37.4 °F 29% 30.44 in 10.0 mi Calm Calm - N/A   Clear
2:35 PM 73.4 °F - 37.4 °F 27% 30.43 in 10.0 mi North - - N/A Thunderstorm Thunderstorm
2:55 PM 73.4 °F - 37.4 °F 27% 30.43 in 10.0 mi NW 4.6 mph - N/A   Clear
3:15 PM 75.2 °F - 37.4 °F 25% 30.42 in 10.0 mi NW 6.9 mph - N/A   Clear
3:35 PM 75.2 °F - 35.6 °F 24% 30.42 in 10.0 mi NNW 8.1 mph - N/A   Clear
3:55 PM 75.2 °F - 33.8 °F 22% 30.41 in 10.0 mi WNW 3.5 mph - N/A   Clear
4:15 PM 77.0 °F - 33.8 °F 21% 30.41 in 10.0 mi NNE 4.6 mph - N/A   Clear
4:35 PM 77.0 °F - 30.2 °F 18% 30.40 in 10.0 mi North 8.1 mph - N/A   Clear
4:55 PM 77.0 °F - 30.2 °F 18% 30.40 in 10.0 mi NNW 11.5 mph - N/A   Clear
5:15 PM 77.0 °F - 32.0 °F 19% 30.40 in 10.0 mi NW 8.1 mph - N/A   Clear
5:35 PM 77.0 °F - 28.4 °F 17% 30.39 in 10.0 mi NW 4.6 mph 9.2 mph N/A   Clear
5:55 PM 77.0 °F - 30.2 °F 18% 30.38 in 10.0 mi NNW 5.8 mph - N/A   Clear
6:15 PM 77.0 °F - 28.4 °F 17% 30.38 in 10.0 mi NW 8.1 mph - N/A   Clear
6:35 PM 75.2 °F - 28.4 °F 18% 30.38 in 10.0 mi NW 4.6 mph - N/A   Clear
6:55 PM 75.2 °F - 26.6 °F 17% 30.37 in 10.0 mi WNW 5.8 mph - N/A   Clear
7:15 PM 73.4 °F - 32.0 °F 22% 30.37 in 10.0 mi NW 5.8 mph - N/A   Clear
7:35 PM 73.4 °F - 32.0 °F 22% 30.37 in 10.0 mi WNW 4.6 mph - N/A   Clear
7:55 PM 68.0 °F - 37.4 °F 33% 30.38 in 10.0 mi West 3.5 mph - N/A   Clear
8:15 PM 68.0 °F - 37.4 °F 33% 30.39 in 10.0 mi WSW 4.6 mph - N/A   Clear
8:35 PM 64.4 °F - 41.0 °F 42% 30.39 in 10.0 mi West 4.6 mph - N/A   Clear
8:55 PM 64.4 °F - 42.8 °F 45% 30.40 in 10.0 mi WNW 4.6 mph - N/A   Clear
9:15 PM 59.0 °F - 42.8 °F 55% 30.40 in 10.0 mi NW 5.8 mph - N/A   Clear
9:35 PM 59.0 °F - 42.8 °F 55% 30.41 in 10.0 mi Calm Calm - N/A   Clear
10:15 PM 57.2 °F - 42.8 °F 59% 30.42 in 10.0 mi Calm Calm - N/A   Clear
10:35 PM 53.6 °F - 42.8 °F 67% 30.43 in 10.0 mi Calm Calm - N/A   Clear
10:55 PM 55.4 °F - 44.6 °F 67% 30.43 in 10.0 mi West 3.5 mph - N/A   Clear
11:15 PM 51.8 °F - 42.8 °F 71% 30.43 in 10.0 mi NW 4.6 mph - N/A   Clear
11:35 PM 51.8 °F - 42.8 °F 71% 30.43 in 10.0 mi Calm Calm - N/A   Clear
11:55 PM 51.8 °F - 42.8 °F 71% 30.43 in 10.0 mi Calm Calm - N/A   Clear